GFSFLT1_850_rhum_315.txt.gz
RH
74 72 74 74 73 75 77 79 83 89 91 87 69 66 74 97 99 90 93 89 42 41 55 41 37 55 69 61 36 72 72 72 67
72 73 75 77 77 77 77 78 83 83 97 99 85 74 76 99 100 97 97 81 75 65 42 56 35 64 76 73 49 65 80 80 74
62 58 57 60 70 75 80 81 78 78 85 96 94 85 74 75 90 74 87 91 82 80 61 50 58 36 80 85 69 59 55 86 83
43 39 37 35 34 38 49 64 77 81 83 87 94 100 87 78 68 67 86 87 89 93 92 71 62 60 42 82 85 68 57 62 83
39 36 35 33 30 27 24 24 34 61 77 89 97 100 99 87 81 76 79 72 76 83 86 96 81 68 64 44 87 74 70 63 84
28 23 21 19 16 14 13 13 14 20 41 78 96 100 100 97 87 81 73 73 70 85 88 82 83 69 67 61 74 88 82 73 69
24 18 12 10 8 7 6 6 7 9 14 38 84 100 100 100 95 91 84 79 77 78 83 88 88 84 74 71 66 65 89 89 79
16 12 8 6 5 4 4 3 3 4 6 13 37 78 95 100 100 98 95 92 88 86 86 91 94 92 91 84 76 79 53 80 89
9 7 6 5 4 4 3 3 3 3 3 4 9 26 40 68 93 98 99 100 100 99 98 100 100 95 95 94 90 76 87 73 56
7 6 6 5 4 4 3 3 3 2 2 2 3 5 10 21 46 68 80 98 100 98 99 99 100 100 100 97 98 98 75 74 87
8 7 6 5 5 4 4 3 3 3 3 2 2 3 4 6 13 24 40 57 96 99 99 99 100 100 99 99 97 97 94 88 76
8 7 6 6 5 4 4 3 3 3 3 4 3 3 3 3 4 6 11 19 56 93 98 99 99 99 100 98 99 98 100 98 99
9 8 7 6 5 5 4 4 5 5 5 4 5 5 4 4 4 4 4 5 8 22 56 95 100 99 97 99 98 99 98 96 98
9 8 7 6 6 5 5 5 6 10 12 9 8 8 9 8 8 8 7 7 6 6 6 6 13 39 82 99 97 96 98 99 100
9 8 7 6 6 5 5 6 6 8 13 19 15 13 14 16 17 13 12 11 10 9 8 8 8 7 6 8 22 63 94 95 97
10 8 7 7 7 7 6 7 9 7 14 37 28 17 16 21 17 18 16 13 12 11 10 9 8 8 8 7 6 5 9 52 90
11 10 9 9 9 9 10 11 14 10 10 46 43 48 45 25 22 22 20 16 13 12 10 9 8 8 7 7 7 7 8 10 24
11 10 11 11 13 12 11 11 18 38 14 14 43 36 34 46 36 30 29 22 19 14 11 10 9 8 8 7 7 6 6 7 11
12 11 10 10 11 13 12 11 11 20 34 22 14 23 34 42 39 43 31 23 24 19 15 13 12 11 9 9 8 7 7 6 6
13 12 11 11 12 12 12 13 13 13 18 26 29 24 22 19 36 37 47 47 44 30 20 16 14 12 12 13 9 9 8 8 8

GFSFLT1_850_rhum_318.txt.gz
RH
78 79 80 80 78 80 81 88 87 83 79 65 67 84 91 85 90 84 90 59 40 53 45 32 48 64 54 47 85 68 64 65 54
75 74 78 78 78 77 76 79 78 80 78 81 75 87 83 85 91 86 92 83 72 46 55 37 50 70 69 48 69 77 74 79 86
73 74 73 72 75 78 79 77 75 77 83 98 86 80 78 73 71 88 83 92 82 73 56 57 38 68 77 63 54 58 84 79 71
66 58 52 48 48 52 63 75 79 81 90 91 96 90 79 72 68 75 83 93 97 91 89 62 69 42 76 86 73 55 64 82 76
47 42 40 37 33 28 27 35 58 77 86 94 98 100 94 84 77 71 70 93 97 87 91 91 70 73 48 71 87 70 59 85 83
42 39 37 30 25 22 19 18 20 40 76 92 99 99 99 93 88 85 74 75 84 86 82 82 77 65 69 52 88 81 71 71 81
34 33 27 26 22 15 12 10 10 14 29 72 100 99 98 100 94 87 85 82 81 85 83 83 89 82 68 76 58 88 89 79 75
27 29 27 20 14 10 7 5 5 6 9 26 84 100 98 98 98 97 96 92 89 88 90 90 89 94 88 81 79 66 73 92 86
24 18 15 12 9 6 5 4 4 3 4 7 29 70 92 98 99 98 96 98 99 100 98 98 92 92 92 93 88 83 84 56 64
13 10 8 7 6 6 5 4 3 3 3 3 4 12 28 44 75 93 98 99 97 99 100 98 100 100 99 97 96 88 78 90 84
10 8 8 7 6 5 4 4 4 3 3 3 3 3 6 12 24 52 77 100 99 99 100 99 98 99 100 100 94 95 95 84 74
10 9 8 7 6 5 4 4 4 4 3 3 3 4 4 4 7 16 34 77 99 99 98 96 98 97 96 96 97 98 98 99 100
10 9 8 7 6 5 5 4 4 4 4 5 5 5 5 5 5 6 10 20 38 98 99 100 100 99 99 100 99 96 95 97 97
10 9 8 7 6 5 5 5 6 6 6 6 6 7 8 7 6 5 6 6 8 16 55 84 90 100 99 98 96 95 98 100 100
10 9 8 7 6 6 5 5 6 9 15 13 11 11 12 12 10 10 9 8 8 8 8 7 7 9 17 40 73 96 95 99 100
10 9 8 8 8 8 8 8 6 7 12 21 19 18 16 16 17 16 14 12 10 9 9 8 8 7 7 7 6 6 11 58 97
11 10 9 8 8 7 8 10 12 10 18 34 44 42 41 24 23 22 20 16 14 11 10 9 8 7 7 7 7 8 10 17 46
12 11 10 9 8 8 7 8 11 14 13 28 32 38 46 47 39 27 21 19 18 15 12 10 9 8 8 7 7 6 6 8 13
12 11 10 10 10 9 9 10 12 14 17 13 22 34 40 37 41 43 34 21 19 17 15 13 11 10 9 9 8 7 7 7 6
13 12 11 10 10 10 10 11 12 17 20 22 19 19 19 20 38 46 45 42 38 26 18 14 13 12 12 10 10 9 9 8 8

GFSFLT1_850_rhum_321.txt.gz
RH
76 77 78 81 80 81 79 69 74 84 72 57 66 81 89 85 83 87 62 40 48 45 35 55 77 42 65 62 57 41 41 78 79
76 75 75 74 74 75 80 80 83 86 82 78 76 70 77 84 82 92 80 85 51 49 40 56 78 60 56 73 75 71 77 70 62
75 73 74 73 74 73 77 77 79 83 88 77 77 75 76 75 78 86 84 89 86 57 50 40 69 77 56 58 75 77 77 88 88
75 72 72 70 72 74 75 78 82 87 94 93 81 78 80 76 71 77 80 87 90 90 76 62 45 73 83 62 56 80 74 67 61
68 53 44 40 38 43 58 73 80 86 91 92 92 86 82 79 74 78 81 80 90 94 92 81 68 48 71 86 65 56 83 79 72
48 45 44 39 34 30 27 28 50 79 88 93 99 99 96 87 83 82 81 80 72 89 91 81 71 66 53 82 79 65 84 85 64
45 42 40 36 34 30 23 21 19 25 65 91 100 99 98 99 94 89 85 82 75 75 94 84 82 76 67 64 86 85 74 76 78
36 38 38 37 29 22 16 14 12 13 19 55 98 98 96 98 98 97 98 91 87 86 88 89 79 87 84 74 72 73 91 85 80
31 34 32 27 21 15 11 8 7 7 8 21 57 94 98 98 98 97 97 96 99 100 94 94 92 93 92 93 76 84 64 86 91
29 25 21 16 11 8 6 5 4 4 4 9 34 60 79 97 99 99 98 95 96 100 100 100 100 99 97 100 94 81 90 90 73
22 17 12 10 8 7 6 5 4 3 3 3 5 10 22 39 62 93 100 100 99 98 99 100 99 100 99 100 96 94 92 86 94
16 12 10 9 8 7 6 5 4 4 4 3 3 4 5 10 22 43 72 100 99 99 99 99 99 99 100 100 95 92 98 98 100
12 10 10 9 7 7 6 5 5 5 5 4 4 5 4 5 8 15 36 63 99 98 97 95 95 87 93 99 100 100 100 98 99
12 11 10 9 8 7 6 6 6 6 6 6 6 8 6 5 5 6 8 17 40 80 99 99 100 98 100 93 97 100 100 100 100
12 11 10 9 8 7 6 6 8 8 7 9 10 12 12 12 10 10 9 7 8 11 20 42 89 93 86 99 97 93 100 100 99
11 10 10 8 8 7 6 6 7 10 11 13 16 16 16 17 14 12 12 11 10 9 8 7 7 7 6 9 14 39 62 84 93
12 11 10 9 8 7 6 7 7 8 11 16 23 30 25 20 19 18 15 13 11 10 9 8 7 7 7 7 6 6 7 13 39
13 12 10 9 8 8 7 7 8 7 13 18 21 34 40 43 36 30 23 17 13 12 10 10 8 7 7 7 6 6 6 7 10
15 13 11 10 10 9 8 8 10 10 8 15 23 28 32 36 37 36 33 21 18 16 15 13 11 9 8 8 8 7 7 7 6
15 14 12 11 10 9 9 8 8 11 12 12 11 16 26 29 34 39 39 37 35 31 25 17 14 13 11 10 10 8 8 7 7

GFSFLT1_850_rhum_327.txt.gz
RH
93 92 84 69 69 81 77 76 79 74 82 83 83 78 80 78 51 45 47 42 49 66 39 64 38 34 35 70 71 85 85 81 54
91 87 80 74 77 76 71 75 78 86 75 91 83 78 77 84 49 38 38 42 46 76 73 50 69 48 38 52 76 88 85 79 78
85 80 80 81 75 70 75 74 77 83 76 69 79 80 88 83 79 82 88 67 45 49 69 52 63 68 59 44 55 64 69 64 78
79 80 75 74 78 80 82 75 76 78 79 79 81 77 78 86 82 84 90 93 75 50 51 73 57 60 70 74 82 83 76 76 80
73 75 74 73 75 77 81 81 77 84 82 84 90 84 79 83 87 81 87 92 93 85 70 50 83 63 60 74 69 73 71 68 68
78 76 75 76 75 76 77 76 77 81 85 87 89 91 88 80 85 88 78 93 91 89 85 84 53 81 83 58 77 74 71 60 53
78 73 69 64 62 64 70 76 79 86 92 97 94 91 87 82 81 84 86 78 82 84 82 73 77 64 88 73 69 85 79 60 56
61 52 45 42 40 35 35 42 61 80 90 99 100 99 99 93 88 82 86 79 79 79 85 86 79 72 70 86 79 80 86 77 68
47 42 38 36 35 35 31 28 28 45 81 100 100 98 97 96 95 94 88 91 96 85 88 84 81 87 84 76 81 92 86 86 81
38 35 33 34 33 32 30 26 23 23 36 75 99 99 98 98 97 95 97 97 99 100 99 100 98 96 96 92 86 78 89 90 90
32 32 34 33 31 29 24 20 16 15 24 56 88 100 100 99 99 99 97 95 95 98 98 98 99 99 99 98 98 96 90 80 80
28 29 29 28 25 20 15 11 8 7 11 25 54 83 96 99 99 98 99 100 93 87 91 96 100 100 100 100 99 99 96 97 95
29 26 23 21 19 15 11 8 6 6 6 10 25 48 69 93 99 99 98 98 97 95 88 87 93 96 100 100 100 100 100 99 94
28 23 18 16 14 12 10 8 8 6 6 6 7 10 15 26 44 79 98 99 99 97 92 88 93 97 95 100 100 99 100 99 99
22 18 15 12 11 10 9 9 8 8 8 8 8 8 8 8 10 14 24 45 72 87 95 89 88 92 84 100 100 95 100 100 100
17 15 13 12 11 10 10 10 11 11 11 11 12 12 12 11 10 9 8 8 12 26 61 79 85 86 86 90 97 100 98 97 100
16 15 13 12 11 11 11 12 11 13 12 13 13 14 15 13 14 12 11 10 9 9 8 9 15 25 44 60 73 75 71 78 83
16 14 13 12 12 12 12 14 15 14 15 15 15 16 18 20 19 17 15 13 12 11 10 9 8 8 7 7 7 7 10 10 19
16 14 13 12 12 13 13 13 15 16 16 16 16 21 22 23 27 24 23 19 17 15 13 11 10 8 8 8 7 7 6 6 7
17 15 14 13 12 12 12 13 13 14 15 18 20 20 23 28 26 33 32 25 24 22 20 16 14 13 12 11 10 8 8 7 7

GFSFLT1_850_rhum_330.txt.gz
RH
91 88 81 83 83 88 84 73 66 71 82 79 73 77 73 59 49 46 52 50 48 37 33 29 32 52 76 79 95 82 68 43 78
92 92 68 72 82 83 80 77 77 72 81 78 74 83 82 38 38 41 41 73 82 60 76 50 38 37 66 77 85 78 70 55 83
99 84 74 74 77 73 68 70 76 81 82 78 83 86 88 81 76 65 42 45 71 76 57 73 68 40 57 76 88 87 76 76 75
93 88 84 79 75 72 75 75 75 79 83 81 84 87 80 82 81 88 88 56 45 60 62 60 68 66 47 52 57 65 66 74 76
82 79 77 78 80 85 81 75 73 84 86 88 86 86 84 81 81 85 93 92 87 63 62 73 58 74 73 81 85 80 79 78 72
76 77 75 75 75 82 83 84 84 89 86 86 87 86 84 83 79 80 78 94 88 86 80 56 82 63 72 74 70 67 58 52 47
82 76 74 74 74 75 75 81 87 99 96 89 92 91 90 83 84 86 83 84 83 80 77 71 60 85 76 64 81 77 59 54 63
85 82 80 77 76 78 82 85 92 97 100 99 96 94 94 90 82 86 90 85 78 79 84 82 72 72 84 75 84 86 72 62 59
66 56 52 46 41 39 42 56 78 92 99 98 97 99 99 95 93 94 89 89 93 86 82 84 84 84 77 85 85 86 87 79 71
53 38 34 33 31 30 28 29 37 60 91 100 98 97 97 98 96 95 96 98 93 98 99 93 93 95 94 91 85 90 91 88 85
44 34 30 29 29 28 26 24 24 32 56 74 99 100 99 98 99 98 96 99 92 96 99 98 99 99 99 99 94 86 84 91 95
48 31 30 31 30 28 26 22 19 21 39 69 87 100 98 98 98 96 96 96 92 94 93 89 91 98 100 100 100 99 90 93 91
47 30 28 26 25 23 19 15 11 12 22 44 73 95 100 98 99 99 98 97 94 96 95 85 99 99 100 100 99 96 100 97 92
46 38 31 25 21 17 14 12 9 7 8 15 33 58 80 92 100 99 99 98 97 94 95 95 100 98 99 99 98 99 99 100 100
41 40 29 23 16 14 12 11 9 8 8 8 9 12 15 19 28 49 75 94 99 97 91 91 89 100 100 100 80 88 100 95 100
35 24 22 17 13 12 11 10 10 10 10 10 10 10 9 9 8 8 10 13 23 40 70 78 85 78 88 97 92 86 98 92 99
25 19 17 15 13 12 12 12 11 12 12 13 13 13 15 12 12 11 10 9 8 8 11 24 46 76 83 86 75 85 86 88 93
24 18 16 14 13 13 13 14 14 14 14 14 14 13 13 15 15 14 13 12 10 10 9 8 8 8 11 17 30 42 48 66 69
23 18 16 14 13 13 13 14 16 16 17 16 14 16 19 17 18 18 16 14 14 12 12 10 9 9 9 9 8 7 6 7 9
20 17 15 14 14 14 14 14 14 15 16 16 18 19 19 21 23 23 24 22 20 17 15 13 12 11 10 10 10 8 8 8 21